Weather History for Andrews, TX

Change the Weather History Date:

Thursday, January 23, 2014

  Actual Average (KMAF) Record (KMAF)
Temperature  
Mean Temperature 28 °F 44 °F  
Max Temperature 38 °F 58 °F 82 °F (1950)
Min Temperature 17 °F 31 °F 7 °F (1966)
Degree Days  
Heating Degree Days 38 21  
Month to date heating degree days 497  
Since 1 July heating degree days 1613  
Moisture  
Dew Point 4 °F    
Average Humidity 39    
Maximum Humidity 62    
Minimum Humidity 16    
Precipitation  
Precipitation 0.00 in 0.02 in 0.48 in (1975)
Month to date precipitation 0.38  
Year to date precipitation 0.38  
Snow  
Snow 0.00 in - - ()
Month to date snowfall  
Since 1 July snowfall  
Snow Depth -    
Sea Level Pressure  
Sea Level Pressure 30.42 in    
Wind  
Wind Speed 16 mph (NE)    
Max Wind Speed 23 mph    
Max Gust Speed 33 mph    
Visibility 10 miles    
Events      
T = Trace of Precipitation, MM = Missing Value Source: NWS Daily Summary

Daily Weather History Graph

Daily Weather History Graph

Search for Another Location

Airport:

Trip Planner

Search our weather history database for the weather conditions in past years. The results will help you decide how hot, cold, wet, or windy it might be!

Date:

Astronomy

Jan. 23, 2014 Rise Set
Actual Time 7:49 AM CST 6:15 PM CST
Civil Twilight 7:22 AM CST 6:41 PM CST
Nautical Twilight 6:53 AM CST 7:11 PM CST
Astronomical Twilight 6:23 AM CST 7:40 PM CST
Moon 12:23 AM CST (1/23) 11:52 AM CST (1/23)
Length of Visible Light 11h 18m
Length of Day
10h 26m
Waning Gibbous, 55% of the Moon is Illuminated
Jan 23
Waning Gibbous
Jan 23
Last Quarter
Jan 30
New
Feb 6
First Quarter
Feb 14
Full

Hourly Weather History & Observations

Time (CST) Temp. Windchill Dew Point Humidity Pressure Visibility Wind Dir Wind Speed Gust Speed Precip Events Conditions
12:15 AM 38.3 °F 30.9 °F 19.4 °F 47% 30.08 in 10.0 mi ENE 11.5 mph 18.4 mph N/A   Clear
12:30 AM 37.8 °F 30.2 °F 19.4 °F 48% 30.08 in 10.0 mi ENE 11.5 mph 17.3 mph N/A   Clear
12:55 AM 36.9 °F 29.1 °F 19.4 °F 49% 30.09 in 10.0 mi ENE 11.5 mph - N/A   Clear
1:15 AM 36.5 °F 27.8 °F 19.4 °F 50% 30.10 in 10.0 mi ENE 13.8 mph - N/A   Clear
1:35 AM 36.1 °F 27.3 °F 19.2 °F 50% 30.11 in 10.0 mi ENE 13.8 mph - N/A   Clear
1:55 AM 36.0 °F 26.7 °F 19.0 °F 50% 30.11 in 10.0 mi NE 15.0 mph - N/A   Clear
2:15 AM 35.8 °F 26.1 °F 18.5 °F 50% 30.12 in 10.0 mi ENE 16.1 mph 21.9 mph N/A   Clear
2:35 AM 35.4 °F 26.0 °F 18.5 °F 50% 30.13 in 10.0 mi NE 15.0 mph 19.6 mph N/A   Clear
2:55 AM 34.9 °F 25.3 °F 18.5 °F 51% 30.14 in 10.0 mi ENE 15.0 mph 19.6 mph N/A   Clear
3:15 AM 34.3 °F 25.0 °F 18.5 °F 52% 30.14 in 10.0 mi ENE 13.8 mph 19.6 mph N/A   Clear
3:35 AM 34.3 °F 24.6 °F 18.3 °F 52% 30.14 in 10.0 mi ENE 15.0 mph 21.9 mph N/A   Clear
3:55 AM 34.2 °F 24.0 °F 18.5 °F 53% 30.15 in 10.0 mi ENE 16.1 mph 21.9 mph N/A   Clear
4:15 AM 33.8 °F 23.2 °F 18.5 °F 54% 30.16 in 10.0 mi ENE 17.3 mph 25.3 mph N/A   Clear
4:35 AM 33.3 °F 22.1 °F 18.9 °F 56% 30.17 in 10.0 mi ENE 18.4 mph 24.2 mph N/A   Clear
4:55 AM 32.9 °F 22.4 °F 19.2 °F 57% 30.18 in 10.0 mi ENE 16.1 mph 24.2 mph N/A   Scattered Clouds
5:15 AM 32.4 °F 21.7 °F 19.6 °F 59% 30.19 in 10.0 mi ENE 16.1 mph 25.3 mph N/A   Scattered Clouds
5:35 AM 32.0 °F 22.1 °F 19.9 °F 61% 30.20 in 10.0 mi NE 13.8 mph - N/A   Clear
5:55 AM 31.8 °F 21.4 °F 20.1 °F 62% 30.22 in 10.0 mi ENE 15.0 mph 24.2 mph N/A   Scattered Clouds
6:15 AM 31.6 °F 19.0 °F 19.4 °F 61% 30.24 in 10.0 mi ENE 21.9 mph 28.8 mph N/A   Scattered Clouds
6:35 AM 31.5 °F 20.9 °F 19.0 °F 60% 30.26 in 10.0 mi ENE 15.0 mph 24.2 mph N/A   Mostly Cloudy
6:55 AM 31.1 °F 18.3 °F 17.4 °F 57% 30.28 in 10.0 mi ENE 21.9 mph 25.3 mph N/A   Overcast
7:15 AM 31.1 °F 20.1 °F 16.7 °F 55% 30.29 in 10.0 mi ENE 16.1 mph 27.6 mph N/A   Overcast
7:35 AM 31.1 °F 18.6 °F 16.5 °F 55% 30.30 in 10.0 mi ENE 20.7 mph 26.5 mph N/A   Mostly Cloudy
7:55 AM 30.9 °F 18.1 °F 15.4 °F 53% 30.32 in 10.0 mi ENE 21.9 mph 27.6 mph N/A   Scattered Clouds
8:15 AM 30.2 °F 16.8 °F 14.4 °F 52% 30.34 in 10.0 mi ENE 23.0 mph 28.8 mph N/A   Mostly Cloudy
8:35 AM 30.0 °F 17.9 °F 14.0 °F 51% 30.36 in 10.0 mi ENE 18.4 mph 24.2 mph N/A   Scattered Clouds
8:55 AM 29.3 °F 16.2 °F 13.5 °F 52% 30.37 in 10.0 mi ENE 20.7 mph 33.4 mph N/A   Mostly Cloudy
9:15 AM 29.8 °F 17.0 °F 13.6 °F 51% 30.39 in 10.0 mi NE 20.7 mph 28.8 mph N/A   Overcast
9:35 AM 30.6 °F 18.6 °F 13.6 °F 50% 30.41 in 10.0 mi ENE 18.4 mph 28.8 mph N/A   Overcast
9:55 AM 29.3 °F 15.6 °F 14.5 °F 54% 30.44 in 10.0 mi NE 23.0 mph 29.9 mph N/A   Mostly Cloudy
10:15 AM 29.1 °F 16.0 °F 14.9 °F 55% 30.45 in 10.0 mi NE 20.7 mph 27.6 mph N/A   Mostly Cloudy
10:35 AM 28.8 °F 16.2 °F 14.2 °F 55% 30.46 in 10.0 mi NE 18.4 mph 27.6 mph N/A   Mostly Cloudy
10:55 AM 30.2 °F 18.1 °F 14.0 °F 51% 30.46 in 10.0 mi NE 18.4 mph 25.3 mph N/A   Mostly Cloudy
11:15 AM 31.1 °F 18.3 °F 13.8 °F 49% 30.47 in 10.0 mi ENE 21.9 mph 29.9 mph N/A   Overcast
11:35 AM 32.0 °F 19.5 °F 13.3 °F 46% 30.48 in 10.0 mi ENE 21.9 mph 28.8 mph N/A   Overcast
11:55 AM 30.0 °F 17.2 °F 12.9 °F 49% 30.48 in 10.0 mi ENE 20.7 mph 27.6 mph N/A   Mostly Cloudy
12:15 PM 31.5 °F 19.4 °F 12.4 °F 45% 30.48 in 10.0 mi ENE 19.6 mph 25.3 mph N/A   Mostly Cloudy
12:35 PM 31.6 °F 20.4 °F 11.3 °F 43% 30.48 in 10.0 mi NE 17.3 mph 25.3 mph N/A   Mostly Cloudy
12:55 PM 31.3 °F 18.9 °F 9.9 °F 41% 30.48 in 10.0 mi ENE 20.7 mph 31.1 mph N/A   Scattered Clouds
1:15 PM 32.2 °F 20.4 °F 9.0 °F 38% 30.48 in 10.0 mi ENE 19.6 mph 29.9 mph N/A   Clear
1:35 PM 32.0 °F 19.5 °F 8.4 °F 37% 30.48 in 10.0 mi NE 21.9 mph 31.1 mph N/A   Clear
1:55 PM 31.3 °F 18.5 °F 6.6 °F 35% 30.48 in 10.0 mi ENE 21.9 mph 29.9 mph N/A   Clear
2:15 PM 31.1 °F 18.3 °F 2.3 °F 29% 30.49 in 10.0 mi ENE 21.9 mph 27.6 mph N/A   Clear
2:35 PM 31.1 °F 18.6 °F 1.2 °F 28% 30.49 in 10.0 mi NE 20.7 mph 29.9 mph N/A   Clear
2:55 PM 28.6 °F 15.3 °F -3.3 °F 25% 30.51 in 10.0 mi NE 20.7 mph 31.1 mph N/A   Clear
3:15 PM 28.0 °F 15.3 °F -8.7 °F 20% 30.51 in 10.0 mi NE 18.4 mph 31.1 mph N/A   Clear
3:35 PM 27.7 °F 14.5 °F -13.0 °F 17% 30.51 in 10.0 mi NNE 19.6 mph 26.5 mph N/A   Clear
3:55 PM 27.5 °F 13.9 °F -9.0 °F 20% 30.52 in 10.0 mi NNE 20.7 mph 25.3 mph N/A   Clear
4:15 PM 27.0 °F 12.8 °F -11.6 °F 18% 30.53 in 10.0 mi NE 21.9 mph 31.1 mph N/A   Clear
4:35 PM 26.4 °F 12.5 °F -13.2 °F 17% 30.54 in 10.0 mi NNE 20.7 mph 26.5 mph N/A   Clear
4:55 PM 25.5 °F 12.9 °F -13.5 °F 18% 30.54 in 10.0 mi NE 16.1 mph 24.2 mph N/A   Clear
5:15 PM 25.2 °F 11.6 °F -13.9 °F 18% 30.54 in 10.0 mi NE 18.4 mph 27.6 mph N/A   Clear
5:35 PM 24.6 °F 11.7 °F -13.7 °F 18% 30.56 in 10.0 mi NE 16.1 mph 24.2 mph N/A   Clear
5:55 PM 23.9 °F 11.7 °F -16.1 °F 17% 30.56 in 10.0 mi NE 13.8 mph 21.9 mph N/A   Clear
6:15 PM 23.0 °F 9.6 °F -17.5 °F 16% 30.57 in 10.0 mi NE 16.1 mph 20.7 mph N/A   Clear
6:35 PM 22.6 °F 9.2 °F -18.4 °F 16% 30.58 in 10.0 mi NE 16.1 mph 21.9 mph N/A   Clear
6:55 PM 22.1 °F 8.9 °F -17.3 °F 17% 30.59 in 10.0 mi NE 15.0 mph 18.4 mph N/A   Clear
7:15 PM 22.1 °F 9.5 °F -15.2 °F 19% 30.61 in 10.0 mi NE 13.8 mph - N/A   Clear
7:35 PM 21.7 °F 9.6 °F -14.1 °F 20% 30.63 in 10.0 mi NE 12.7 mph - N/A   Clear
7:55 PM 21.2 °F 7.8 °F -13.9 °F 21% 30.64 in 10.0 mi NE 15.0 mph 19.6 mph N/A   Clear
8:15 PM 20.8 °F 9.0 °F -14.8 °F 20% 30.64 in 10.0 mi NE 11.5 mph 17.3 mph N/A   Clear
8:35 PM 20.5 °F 9.2 °F -14.8 °F 20% 30.65 in 10.0 mi NE 10.4 mph - N/A   Scattered Clouds
8:55 PM 20.8 °F 7.3 °F -13.2 °F 22% 30.65 in 10.0 mi NNE 15.0 mph 18.4 mph N/A   Overcast
9:15 PM 20.8 °F 7.9 °F -12.5 °F 22% 30.66 in 10.0 mi NE 13.8 mph 17.3 mph N/A   Overcast
9:35 PM 20.3 °F 9.8 °F -12.5 °F 23% 30.66 in 10.0 mi NE 9.2 mph - N/A   Mostly Cloudy
9:55 PM 19.8 °F 9.1 °F -12.1 °F 24% 30.66 in 10.0 mi NE 9.2 mph - N/A   Mostly Cloudy
10:15 PM 19.4 °F 8.6 °F -11.4 °F 25% 30.67 in 10.0 mi NE 9.2 mph - N/A   Scattered Clouds
10:35 PM 19.0 °F 10.0 °F -11.2 °F 26% 30.67 in 10.0 mi NE 6.9 mph - N/A   Clear
10:55 PM 18.5 °F 9.3 °F -10.7 °F 27% 30.67 in 10.0 mi NE 6.9 mph - N/A   Clear
11:15 PM 18.0 °F 9.8 °F -10.5 °F 28% 30.67 in 10.0 mi NE 5.8 mph - N/A   Clear
11:35 PM 17.6 °F 8.2 °F -10.5 °F 28% 30.67 in 10.0 mi NE 6.9 mph - N/A   Clear
11:55 PM 17.2 °F 8.9 °F -10.3 °F 29% 30.67 in 10.0 mi NE 5.8 mph - N/A   Clear